sat.trackr.live / text

‹ back to catalog

STARLINK-2457

NORAD 48321 · 2021-036AX

PAYLOAD ACTIVE UNKNOWN

§ Identity

Operator
Country
US
Launch date
2021-04-29
Launch site
AFETR
Launch vehicle
Mass (kg)
RCS (m²)

Purposes: comms

External: N2YO · Heavens-Above · Gunter

§ Orbital elements

Epoch: 2026-05-25T03:55:53.481216Z

Period
94.01 min
Inclination
53.1602°
Eccentricity
0.0001167
Mean motion
15.31702101 rev/d
Perigee alt
469.9 km
Apogee alt
471.5 km
Semi-major
6,848.9 km
B*
1.1546e-5
RAAN
105.3870°
Arg perigee
84.1428°
Mean anomaly
275.9706°
Rev number
27,975

§ Raw data

STARLINK-24571 48321U 21036AX  26145.16381344 -.00000007  00000+0  11546-4 0  99962 48321  53.1602 105.3870 0001167  84.1428 275.9706 15.31702101279750

JSON: /api/v1/satellites/48321 · /tle

For live sub-satellite position, see the globe view (requires WebGL).

§ Visibility from observer

Set your observer location to see the next 7 days of passes ≥ 10°. The values pass through the URL so the page stays shareable.

No JS? Fill the form by hand. The geolocation button needs JavaScript.